2024-130A

Last updated on Mon Aug 19 2024 00:02:03 GMT+0000 (Coordinated Universal Time)

1 60249U 24130A 24231.54951401 .00261807 17737-4 13480-2 0 9993 2 60249 97.4746 301.4311 0284003 82.8356 280.5085 15.41257667 4660

Satellite not in orbit

2024-130A